#�ϑ�����,���ϕ���,���ϕ���,�ő啗��,�ő啗����������,�ő�u�ԕ���,�ő�u�ԕ�����������
#(�N����),(m/s)   ,(16����),(m/s)   ,(16����)        ,(m/s)       ,(16����)            
2014/4/14 0:01,0.5,15,0.5,15,1.3,15
2014/4/14 0:02,0.6,15,0.6,15,1.8,1
2014/4/14 0:03,0.6,16,0.6,15,1.6,1
2014/4/14 0:04,0.7,16,0.7,16,2,1
2014/4/14 0:05,0.7,16,0.7,16,1.8,1
2014/4/14 0:06,0.7,16,0.7,16,0.9,2
2014/4/14 0:07,0.7,1,0.7,16,0.5,14
2014/4/14 0:08,0.8,1,0.8,1,1.3,1
2014/4/14 0:09,0.8,1,0.8,1,2.2,16
2014/4/14 0:10,0.9,1,0.9,1,1.1,2
2014/4/14 0:11,0.9,1,0.9,1,2.7,1
2014/4/14 0:12,1,1,1,1,2.5,16
2014/4/14 0:13,1.1,1,1.1,1,2,15
2014/4/14 0:14,1,1,1.1,1,1.9,16
2014/4/14 0:15,1,1,1,1,0.9,16
2014/4/14 0:16,1,16,1,1,1,15
2014/4/14 0:17,1.1,16,1.1,1,1.4,15
2014/4/14 0:18,1.1,16,1.1,1,1.1,2
2014/4/14 0:19,1.1,16,1.1,1,1.3,16
2014/4/14 0:20,1.1,16,1.1,1,1.8,16
2014/4/14 0:21,1.1,16,1.1,1,2.2,16
2014/4/14 0:22,1,16,1.1,1,1.5,15
2014/4/14 0:23,1,16,1,1,1.8,16
2014/4/14 0:24,1.1,16,1.1,16,2.6,16
2014/4/14 0:25,1.2,16,1.2,16,2.2,16
2014/4/14 0:26,1.2,16,1.2,16,2,16
2014/4/14 0:27,1.2,16,1.2,16,1.4,16
2014/4/14 0:28,1.2,16,1.2,16,1.4,16
2014/4/14 0:29,1.3,16,1.3,16,2.1,15
2014/4/14 0:30,1.3,16,1.3,16,2,15
2014/4/14 0:31,1.2,16,1.3,16,1.3,16
2014/4/14 0:32,1.2,16,1.2,16,1.3,14
2014/4/14 0:33,1.1,16,1.2,16,1.4,1
2014/4/14 0:34,1.1,16,1.1,16,2.2,1
2014/4/14 0:35,1,16,1.1,16,1.6,1
2014/4/14 0:36,0.9,15,0.9,16,0.4,11
2014/4/14 0:37,0.8,16,0.9,16,1.3,16
2014/4/14 0:38,0.8,16,0.8,16,1.4,1
2014/4/14 0:39,0.8,16,0.8,16,0.9,15
2014/4/14 0:40,0.6,16,0.7,16,0.1,13
2014/4/14 0:41,0.6,16,0.6,16,0.5,1
2014/4/14 0:42,0.6,16,0.6,16,0.9,16
2014/4/14 0:43,0.5,16,0.6,16,0.6,16
2014/4/14 0:44,0.4,16,0.5,16,0.6,1
2014/4/14 0:45,0.5,16,0.5,16,1.4,1
2014/4/14 0:46,0.6,16,0.6,15,1.6,16
2014/4/14 0:47,0.6,16,0.6,16,1.4,16
2014/4/14 0:48,0.6,16,0.6,16,1.8,15
2014/4/14 0:49,0.7,16,0.7,16,1.9,15
2014/4/14 0:50,0.8,16,0.8,16,1.5,15
2014/4/14 0:51,0.8,16,0.8,16,1,16
2014/4/14 0:52,0.8,16,0.8,16,0.6,15
2014/4/14 0:53,0.8,16,0.8,16,0.6,15
2014/4/14 0:54,0.8,16,0.8,16,0.8,1
2014/4/14 0:55,0.8,16,0.9,16,1.6,16
2014/4/14 0:56,0.8,15,0.8,16,0.8,15
2014/4/14 0:57,0.7,15,0.7,16,0.5,13
2014/4/14 0:58,0.6,15,0.7,16,0.6,10
2014/4/14 0:59,0.5,15,0.6,16,0.6,2
2014/4/14 1:00,0.5,15,0.5,16,1.3,3
2014/4/14 1:01,0.5,16,0.5,16,1.4,2
2014/4/14 1:02,0.5,16,0.5,16,1.4,1
2014/4/14 1:03,0.5,1,0.5,16,0.8,3
2014/4/14 1:04,0.5,1,0.5,16,0.3,1
2014/4/14 1:05,0.4,1,0.5,16,1,1
2014/4/14 1:06,0.4,2,0.4,15,0.9,16
2014/4/14 1:07,0.4,2,0.4,15,0,16
2014/4/14 1:08,0.4,2,0.4,15,0.1,16
2014/4/14 1:09,0.4,2,0.4,15,1,7
2014/4/14 1:10,0.4,2,0.4,15,1,5
2014/4/14 1:11,0.4,2,0.4,16,0.9,4
2014/4/14 1:12,0.3,2,0.4,16,0.5,12
2014/4/14 1:13,0.3,2,0.3,1,0.4,12
2014/4/14 1:14,0.3,2,0.3,1,0.4,10
2014/4/14 1:15,0.3,5,0.3,1,0.3,9
2014/4/14 1:16,0.2,8,0.3,2,0.1,7
2014/4/14 1:17,0.3,8,0.3,2,1.1,15
2014/4/14 1:18,0.3,9,0.3,2,1.3,16
2014/4/14 1:19,0.3,9,0.3,2,1,7
2014/4/14 1:20,0.3,9,0.3,2,0.9,8
2014/4/14 1:21,0.3,10,0.3,2,1,2
2014/4/14 1:22,0.3,9,0.3,2,0.4,3
2014/4/14 1:23,0.3,7,0.3,2,0.1,10
2014/4/14 1:24,0.2,7,0.3,2,0.1,9
2014/4/14 1:25,0.3,6,0.3,9,0.4,8
2014/4/14 1:26,0.3,3,0.3,8,1.3,16
2014/4/14 1:27,0.3,3,0.3,8,0.6,16
2014/4/14 1:28,0.3,5,0.3,9,0.8,7
2014/4/14 1:29,0.3,4,0.3,9,1.4,16
2014/4/14 1:30,0.3,3,0.3,10,0.3,8
2014/4/14 1:31,0.3,12,0.3,10,0.8,14
2014/4/14 1:32,0.3,10,0.3,9,0.8,8
2014/4/14 1:33,0.3,10,0.3,8,0.8,9
2014/4/14 1:34,0.4,10,0.4,10,1,12
2014/4/14 1:35,0.4,10,0.4,10,0.8,8
2014/4/14 1:36,0.4,10,0.4,10,0.5,2
2014/4/14 1:37,0.4,10,0.4,10,0.8,7
2014/4/14 1:38,0.4,9,0.4,10,0.3,6
2014/4/14 1:39,0.3,9,0.4,10,0.1,8
2014/4/14 1:40,0.3,9,0.3,10,0.1,8
2014/4/14 1:41,0.3,8,0.3,10,0.3,14
2014/4/14 1:42,0.2,8,0.2,10,0.6,8
2014/4/14 1:43,0.3,8,0.3,10,2,16
2014/4/14 1:44,0.3,7,0.3,10,2,15
2014/4/14 1:45,0.3,5,0.4,10,1.6,1
2014/4/14 1:46,0.4,5,0.4,10,2.7,15
2014/4/14 1:47,0.5,1,0.5,4,1.6,1
2014/4/14 1:48,0.7,16,0.7,16,2.4,1
2014/4/14 1:49,0.8,16,0.8,16,2.1,15
2014/4/14 1:50,1,16,1,16,2.2,16
2014/4/14 1:51,1.1,16,1.1,16,2.6,16
2014/4/14 1:52,1.2,16,1.2,16,2.1,2
2014/4/14 1:53,1.3,16,1.3,16,2.2,15
2014/4/14 1:54,1.4,16,1.4,16,3.9,1
2014/4/14 1:55,1.6,16,1.6,16,2.9,16
2014/4/14 1:56,1.6,16,1.6,16,2.5,15
2014/4/14 1:57,1.6,16,1.6,16,1.6,16
2014/4/14 1:58,1.4,16,1.5,16,0.5,11
2014/4/14 1:59,1.3,16,1.4,16,0,15
2014/4/14 2:00,1.1,16,1.3,16,0.1,5
2014/4/14 2:01,1,16,1.1,16,0.1,16
2014/4/14 2:02,0.8,16,0.9,16,0.3,16
2014/4/14 2:03,0.7,16,0.8,16,1,15
2014/4/14 2:04,0.6,16,0.7,16,1,2
2014/4/14 2:05,0.4,16,0.6,16,0.8,2
2014/4/14 2:06,0.3,16,0.4,16,1.6,16
2014/4/14 2:07,0.4,16,0.4,16,1.5,1
2014/4/14 2:08,0.4,16,0.4,16,1.3,1
2014/4/14 2:09,0.5,16,0.5,16,1,16
2014/4/14 2:10,0.6,16,0.6,16,1.8,10
2014/4/14 2:11,0.7,16,0.7,16,2.1,15
2014/4/14 2:12,0.9,16,0.9,16,3.9,15
2014/4/14 2:13,1.2,16,1.2,16,3.5,1
2014/4/14 2:14,1.3,16,1.3,16,4.2,2
2014/4/14 2:15,1.5,16,1.5,16,3.9,16
2014/4/14 2:16,1.6,16,1.6,16,3.9,2
2014/4/14 2:17,1.7,16,1.7,16,3.7,1
2014/4/14 2:18,1.9,16,1.9,16,4.1,15
2014/4/14 2:19,2.1,16,2.1,16,3.9,16
2014/4/14 2:20,2.4,16,2.4,16,3.9,16
2014/4/14 2:21,2.4,16,2.4,16,2.1,15
2014/4/14 2:22,2.3,16,2.4,16,3.6,15
2014/4/14 2:23,2.3,16,2.3,16,3.7,15
2014/4/14 2:24,2.3,16,2.3,16,3.5,15
2014/4/14 2:25,2.4,16,2.4,16,4.4,15
2014/4/14 2:26,2.5,16,2.5,16,4.3,16
2014/4/14 2:27,2.5,16,2.5,16,3.9,16
2014/4/14 2:28,2.5,16,2.5,16,4.2,16
2014/4/14 2:29,2.6,16,2.6,16,5.7,16
2014/4/14 2:30,2.7,16,2.7,16,5.4,16
2014/4/14 2:31,3.1,16,3.1,15,5.6,14
2014/4/14 2:32,3.2,16,3.2,15,4.9,16
2014/4/14 2:33,3.4,16,3.4,16,4.8,15
2014/4/14 2:34,3.5,16,3.5,16,5.1,16
2014/4/14 2:35,3.6,16,3.6,16,4.9,15
2014/4/14 2:36,3.8,16,3.8,16,6.3,15
2014/4/14 2:37,3.8,16,3.9,16,6.3,15
2014/4/14 2:38,3.9,16,3.9,16,4.1,15
2014/4/14 2:39,3.8,16,3.9,16,5.5,16
2014/4/14 2:40,3.7,16,3.8,16,5.2,16
2014/4/14 2:41,3.6,16,3.7,16,6.5,16
2014/4/14 2:42,3.5,16,3.6,16,5.4,16
2014/4/14 2:43,3.6,16,3.6,16,5.4,16
2014/4/14 2:44,3.5,16,3.6,16,5.6,16
2014/4/14 2:45,3.5,16,3.5,16,5.4,16
2014/4/14 2:46,3.5,16,3.6,16,4.8,16
2014/4/14 2:47,3.5,16,3.5,16,5.8,16
2014/4/14 2:48,3.6,16,3.6,16,5.8,16
2014/4/14 2:49,3.7,16,3.7,16,5.7,15
2014/4/14 2:50,3.7,16,3.7,16,5.1,16
2014/4/14 2:51,3.8,16,3.8,16,4.8,16
2014/4/14 2:52,3.8,16,3.8,16,4.4,16
2014/4/14 2:53,3.7,16,3.8,16,3.9,15
2014/4/14 2:54,3.7,16,3.7,16,4.8,16
2014/4/14 2:55,3.7,16,3.8,16,4.4,16
2014/4/14 2:56,3.6,16,3.7,16,4.2,16
2014/4/14 2:57,3.5,16,3.6,16,4.4,16
2014/4/14 2:58,3.4,16,3.5,16,4.3,16
2014/4/14 2:59,3.3,16,3.4,16,3.6,16
2014/4/14 3:00,3.1,16,3.2,16,3.7,15
2014/4/14 3:01,3,16,3.1,16,3.6,15
2014/4/14 3:02,2.9,16,2.9,16,3.3,16
2014/4/14 3:03,2.9,16,2.9,16,4.3,15
2014/4/14 3:04,2.8,16,2.9,16,4.3,15
2014/4/14 3:05,2.9,16,2.9,16,5.7,16
2014/4/14 3:06,2.9,16,3,16,4.9,15
2014/4/14 3:07,3,16,3,16,4.9,15
2014/4/14 3:08,3,16,3.1,16,5,16
2014/4/14 3:09,3,16,3,16,4.1,16
2014/4/14 3:10,3.1,16,3.1,16,4.8,15
2014/4/14 3:11,3.2,16,3.2,16,6,15
2014/4/14 3:12,3.3,16,3.3,16,4.8,15
2014/4/14 3:13,3.4,16,3.4,16,6,16
2014/4/14 3:14,3.5,16,3.5,16,5.1,16
2014/4/14 3:15,3.4,16,3.5,16,5.2,15
2014/4/14 3:16,3.4,16,3.4,16,5.5,16
2014/4/14 3:17,3.4,16,3.4,16,6.1,16
2014/4/14 3:18,3.4,16,3.4,16,6.5,16
2014/4/14 3:19,3.5,16,3.5,16,4.7,16
2014/4/14 3:20,3.5,16,3.5,16,4.5,15
2014/4/14 3:21,3.5,16,3.6,16,5.2,16
2014/4/14 3:22,3.6,16,3.6,16,5.6,16
2014/4/14 3:23,3.6,16,3.6,16,5.7,16
2014/4/14 3:24,3.4,16,3.6,16,3.7,15
2014/4/14 3:25,3.5,16,3.5,16,6,16
2014/4/14 3:26,3.6,16,3.6,16,5.7,16
2014/4/14 3:27,3.6,16,3.6,16,6.1,16
2014/4/14 3:28,3.7,16,3.7,16,6.9,15
2014/4/14 3:29,3.8,16,3.8,16,6.7,16
2014/4/14 3:30,3.8,16,3.8,16,5.4,15
2014/4/14 3:31,3.9,16,3.9,16,6.2,15
2014/4/14 3:32,3.9,16,3.9,16,6,1
2014/4/14 3:33,3.9,16,4,16,5.6,16
2014/4/14 3:34,4,16,4,16,4.9,15
2014/4/14 3:35,4,16,4,16,5.5,16
2014/4/14 3:36,4,16,4,16,6.8,16
2014/4/14 3:37,4.1,16,4.1,16,6.9,16
2014/4/14 3:38,4,16,4.1,16,7.5,16
2014/4/14 3:39,4.1,16,4.1,16,6.7,16
2014/4/14 3:40,4.1,16,4.1,16,6.1,1
2014/4/14 3:41,4.2,16,4.2,16,6.7,15
2014/4/14 3:42,4.2,16,4.2,16,5.7,16
2014/4/14 3:43,4.2,16,4.2,16,6.3,15
2014/4/14 3:44,4.2,16,4.2,16,6.1,16
2014/4/14 3:45,4.3,16,4.3,16,5.7,16
2014/4/14 3:46,4.2,16,4.3,16,5.5,16
2014/4/14 3:47,4.2,16,4.3,16,5.8,15
2014/4/14 3:48,4.1,16,4.2,16,5.5,16
2014/4/14 3:49,4,16,4.1,16,5.6,15
2014/4/14 3:50,4.1,16,4.1,16,7.4,16
2014/4/14 3:51,4.1,16,4.2,16,7.2,15
2014/4/14 3:52,4.1,16,4.2,16,7.1,16
2014/4/14 3:53,4,16,4.1,16,5.4,16
2014/4/14 3:54,4.1,16,4.1,16,5.7,16
2014/4/14 3:55,4,16,4.1,16,4.4,14
2014/4/14 3:56,3.8,16,3.9,16,4.8,16
2014/4/14 3:57,3.9,16,3.9,16,6.7,16
2014/4/14 3:58,3.9,16,3.9,16,6.4,16
2014/4/14 3:59,3.9,16,4,16,5.5,16
2014/4/14 4:00,3.8,16,4,16,5.7,15
2014/4/14 4:01,3.7,16,3.8,16,7,16
2014/4/14 4:02,3.6,16,3.7,16,5.6,16
2014/4/14 4:03,3.6,16,3.6,16,6.1,16
2014/4/14 4:04,3.6,16,3.6,16,5.6,15
2014/4/14 4:05,3.6,16,3.6,16,3.7,16
2014/4/14 4:06,3.8,16,3.8,16,7.7,16
2014/4/14 4:07,3.8,16,3.8,16,6.4,15
2014/4/14 4:08,3.8,16,3.8,16,5.6,15
2014/4/14 4:09,3.8,16,3.8,16,5,2
2014/4/14 4:10,3.7,16,3.8,16,4.8,16
2014/4/14 4:11,3.6,16,3.7,16,4.7,16
2014/4/14 4:12,3.5,16,3.6,16,4.2,16
2014/4/14 4:13,3.7,16,3.7,16,6.7,16
2014/4/14 4:14,3.5,16,3.7,16,6.1,16
2014/4/14 4:15,3.4,16,3.5,16,2.7,16
2014/4/14 4:16,3.1,16,3.4,16,3.5,13
2014/4/14 4:17,2.7,16,3,16,3.6,1
2014/4/14 4:18,2.7,16,2.7,16,5.8,16
2014/4/14 4:19,2.6,16,2.7,16,6.1,16
2014/4/14 4:20,2.6,16,2.7,16,4.9,16
2014/4/14 4:21,2.6,16,2.6,16,4.4,16
2014/4/14 4:22,2.6,16,2.6,16,3.7,3
2014/4/14 4:23,2.3,16,2.6,16,3,16
2014/4/14 4:24,2.4,16,2.4,16,6.5,16
2014/4/14 4:25,2.6,16,2.6,16,5.1,15
2014/4/14 4:26,2.7,16,2.7,16,4.2,1
2014/4/14 4:27,2.8,16,2.8,16,4.3,15
2014/4/14 4:28,2.8,16,2.8,16,5.2,16
2014/4/14 4:29,2.8,16,2.8,16,6.1,15
2014/4/14 4:30,2.7,16,2.8,16,2.7,13
2014/4/14 4:31,2.6,16,2.7,16,3.6,3
2014/4/14 4:32,2.7,16,2.7,16,3.5,15
2014/4/14 4:33,2.7,16,2.7,16,3.2,15
2014/4/14 4:34,2.5,16,2.7,16,2.7,2
2014/4/14 4:35,2.5,16,2.5,16,3.8,16
2014/4/14 4:36,2.5,16,2.5,16,3.7,14
2014/4/14 4:37,2.6,16,2.6,16,4.2,15
2014/4/14 4:38,2.3,16,2.5,16,2.4,15
2014/4/14 4:39,2,16,2.3,16,1.8,9
2014/4/14 4:40,1.9,15,2,16,1.3,9
2014/4/14 4:41,1.8,15,1.9,16,1.8,8
2014/4/14 4:42,1.7,14,1.8,16,2.2,7
2014/4/14 4:43,1.7,12,1.7,16,1.9,7
2014/4/14 4:44,1.6,10,1.6,16,1.8,8
2014/4/14 4:45,1.4,9,1.5,16,1.3,8
2014/4/14 4:46,1.2,9,1.4,16,1.1,9
2014/4/14 4:47,1,9,1.2,16,1.5,3
2014/4/14 4:48,0.9,8,1,16,1.5,3
2014/4/14 4:49,1,8,1,16,2,16
2014/4/14 4:50,1.2,8,1.2,15,3.5,14
2014/4/14 4:51,1.2,6,1.2,15,3,2
2014/4/14 4:52,1.2,2,1.3,14,3,1
2014/4/14 4:53,1.2,1,1.2,12,2.1,16
2014/4/14 4:54,1.4,16,1.4,10,4.4,15
2014/4/14 4:55,1.7,16,1.7,16,6.1,16
2014/4/14 4:56,2.1,16,2.1,16,7.1,15
2014/4/14 4:57,2.4,16,2.4,16,6.5,15
2014/4/14 4:58,2.6,16,2.6,16,4.5,15
2014/4/14 4:59,2.6,16,2.6,16,2.2,5
2014/4/14 5:00,2.5,1,2.6,16,2.5,5
2014/4/14 5:01,2.5,1,2.5,16,1.8,2
2014/4/14 5:02,2.4,1,2.5,16,2.6,2
2014/4/14 5:03,2.5,1,2.5,16,2.7,16
2014/4/14 5:04,2.5,1,2.5,16,5,1
2014/4/14 5:05,2.4,1,2.5,16,4.3,16
2014/4/14 5:06,2.2,1,2.4,16,4.7,14
2014/4/14 5:07,2,1,2.2,16,3.3,16
2014/4/14 5:08,1.9,1,2,16,2.9,15
2014/4/14 5:09,1.9,1,1.9,16,2.9,16
2014/4/14 5:10,1.9,1,1.9,1,3,2
2014/4/14 5:11,2,16,2,1,3.8,15
2014/4/14 5:12,2,16,2,1,3.2,15
2014/4/14 5:13,2,16,2,1,2.5,1
2014/4/14 5:14,2,16,2.1,1,4.2,16
2014/4/14 5:15,1.8,16,2,1,2.7,16
2014/4/14 5:16,1.7,1,1.8,1,2.5,7
2014/4/14 5:17,1.6,1,1.7,16,1.6,6
2014/4/14 5:18,1.5,2,1.5,16,1.9,4
2014/4/14 5:19,1.4,2,1.5,16,1.8,6
2014/4/14 5:20,1.3,2,1.4,16,1.6,14
2014/4/14 5:21,1.2,2,1.3,16,1.8,13
2014/4/14 5:22,1.2,2,1.2,16,3,12
2014/4/14 5:23,1.2,15,1.3,16,3.2,14
2014/4/14 5:24,1.1,5,1.2,16,1.8,5
2014/4/14 5:25,1.2,6,1.2,16,2.2,6
2014/4/14 5:26,1.2,8,1.2,1,1.9,8
2014/4/14 5:27,1.1,8,1.1,1,1.1,8
2014/4/14 5:28,1.2,9,1.2,2,2.6,9
2014/4/14 5:29,1.2,9,1.2,2,2.1,8
2014/4/14 5:30,1.2,9,1.2,2,1,9
2014/4/14 5:31,1.2,8,1.2,1,1.3,16
2014/4/14 5:32,1,7,1.2,1,0.6,1
2014/4/14 5:33,0.9,6,1,15,0.5,2
2014/4/14 5:34,0.8,8,0.9,5,1.4,10
2014/4/14 5:35,0.8,9,0.8,6,2,9
2014/4/14 5:36,0.8,9,0.8,8,1.4,9
2014/4/14 5:37,0.9,9,0.9,8,1.8,9
2014/4/14 5:38,0.8,10,0.9,9,1.6,9
2014/4/14 5:39,0.8,10,0.8,9,1.6,8
2014/4/14 5:40,0.7,9,0.7,9,0.8,1
2014/4/14 5:41,0.7,8,0.7,8,0.4,1
2014/4/14 5:42,0.7,8,0.7,7,0.9,9
2014/4/14 5:43,0.7,9,0.7,6,0.5,11
2014/4/14 5:44,0.7,9,0.7,9,0.6,11
2014/4/14 5:45,0.6,9,0.7,9,0.8,15
2014/4/14 5:46,0.6,10,0.6,9,1.5,14
2014/4/14 5:47,0.5,9,0.6,10,1.6,6
2014/4/14 5:48,0.6,7,0.6,10,2.1,5
2014/4/14 5:49,0.7,5,0.7,10,1.9,4
2014/4/14 5:50,0.7,5,0.7,9,0.9,4
2014/4/14 5:51,0.7,5,0.7,8,1,15
2014/4/14 5:52,0.7,2,0.7,8,1.1,12
2014/4/14 5:53,0.8,3,0.8,2,1.9,4
2014/4/14 5:54,0.9,3,0.9,3,2,4
2014/4/14 5:55,1,4,1,4,3,4
2014/4/14 5:56,1.1,4,1.1,4,3.2,2
2014/4/14 5:57,1.2,3,1.2,3,3.1,1
2014/4/14 5:58,1.2,2,1.2,3,3,15
2014/4/14 5:59,1.2,2,1.2,3,2.6,1
2014/4/14 6:00,1.3,2,1.3,2,1.5,3
2014/4/14 6:01,1.4,2,1.4,2,1.4,6
2014/4/14 6:02,1.4,3,1.4,2,1.4,5
2014/4/14 6:03,1.5,3,1.5,3,1.9,7
2014/4/14 6:04,1.4,3,1.5,3,2.6,14
2014/4/14 6:05,1.5,3,1.5,3,3.9,14
2014/4/14 6:06,1.5,2,1.6,2,3.3,16
2014/4/14 6:07,1.5,3,1.5,2,2.7,1
2014/4/14 6:08,1.4,3,1.5,2,3,1
2014/4/14 6:09,1.5,3,1.5,2,3.8,1
2014/4/14 6:10,1.8,3,1.8,3,4.9,16
2014/4/14 6:11,1.9,2,1.9,2,3.3,1
2014/4/14 6:12,2,1,2,1,3.6,1
2014/4/14 6:13,2,1,2,1,3.3,1
2014/4/14 6:14,2.1,1,2.1,1,3.7,16
2014/4/14 6:15,2.2,1,2.2,1,5,16
2014/4/14 6:16,2.5,1,2.5,1,6.8,16
2014/4/14 6:17,2.8,1,2.8,1,6.4,16
2014/4/14 6:18,2.9,16,2.9,16,4.3,16
2014/4/14 6:19,3,16,3,16,4.8,16
2014/4/14 6:20,3,16,3.1,16,4.5,16
2014/4/14 6:21,3.1,16,3.1,16,4.5,15
2014/4/14 6:22,3.1,16,3.1,16,5.1,16
2014/4/14 6:23,3.2,16,3.2,16,5.6,15
2014/4/14 6:24,3.1,16,3.2,16,2.6,16
2014/4/14 6:25,2.9,16,3.1,16,3.9,15
2014/4/14 6:26,2.6,16,2.9,16,3.8,14
2014/4/14 6:27,2.3,15,2.6,16,2.6,14
2014/4/14 6:28,2.2,15,2.3,16,2.9,12
2014/4/14 6:29,2,15,2.2,16,2.4,13
2014/4/14 6:30,1.8,15,2,16,1.1,15
2014/4/14 6:31,1.6,15,1.8,16,2.9,6
2014/4/14 6:32,1.4,14,1.6,16,1,6
2014/4/14 6:33,1.3,14,1.3,16,1.3,9
2014/4/14 6:34,1.3,13,1.3,16,1.9,8
2014/4/14 6:35,1.3,12,1.3,16,1.8,11
2014/4/14 6:36,1.2,11,1.2,16,2.1,12
2014/4/14 6:37,1,10,1.1,15,1.3,9
2014/4/14 6:38,1,9,1,15,2.5,8
2014/4/14 6:39,1,9,1,15,2,9
2014/4/14 6:40,1,9,1,15,0.9,9
2014/4/14 6:41,0.8,9,1,15,0.4,8
2014/4/14 6:42,0.8,9,0.8,14,0.6,2
2014/4/14 6:43,0.8,9,0.8,14,0.4,14
2014/4/14 6:44,0.7,10,0.8,12,0.9,10
2014/4/14 6:45,0.7,10,0.7,12,2.1,10
2014/4/14 6:46,0.6,9,0.7,11,1.1,10
2014/4/14 6:47,0.6,9,0.6,10,0.6,10
2014/4/14 6:48,0.5,9,0.6,9,0.6,7
2014/4/14 6:49,0.5,8,0.5,9,1.8,8
2014/4/14 6:50,0.6,8,0.6,9,2.5,8
2014/4/14 6:51,0.7,9,0.7,9,2,8
2014/4/14 6:52,0.8,9,0.8,9,2.2,8
2014/4/14 6:53,0.9,9,0.9,9,1.9,9
2014/4/14 6:54,1,9,1,9,2.4,11
2014/4/14 6:55,1.1,9,1.1,9,3.2,10
2014/4/14 6:56,1.3,9,1.3,9,2.7,11
2014/4/14 6:57,1.4,9,1.4,9,2.5,12
2014/4/14 6:58,1.6,10,1.6,10,2.4,10
2014/4/14 6:59,1.6,10,1.6,10,1.9,9
2014/4/14 7:00,1.6,10,1.6,10,2.7,6
2014/4/14 7:01,1.6,10,1.6,10,2.7,6
2014/4/14 7:02,1.6,10,1.6,10,2.2,4
2014/4/14 7:03,1.4,9,1.5,10,0.1,3
2014/4/14 7:04,1.3,9,1.4,10,0.8,8
2014/4/14 7:05,1.1,8,1.3,10,0.5,8
2014/4/14 7:06,0.9,8,1.1,10,0.5,10
2014/4/14 7:07,0.8,8,0.9,10,0.8,10
2014/4/14 7:08,0.7,8,0.8,10,1.3,10
2014/4/14 7:09,0.8,8,0.8,10,1.3,10
2014/4/14 7:10,0.7,9,0.8,10,1,11
2014/4/14 7:11,0.6,9,0.7,10,1.3,11
2014/4/14 7:12,0.6,9,0.6,9,1,8
2014/4/14 7:13,0.7,9,0.7,9,1.5,7
2014/4/14 7:14,0.7,9,0.7,9,1,9
2014/4/14 7:15,0.8,9,0.8,8,2.5,8
2014/4/14 7:16,1,9,1,9,3.3,8
2014/4/14 7:17,1.2,9,1.2,9,3.2,8
2014/4/14 7:18,1.4,9,1.4,9,3.9,8
2014/4/14 7:19,1.4,9,1.4,9,2.6,11
2014/4/14 7:20,1.4,9,1.4,9,2.5,11
2014/4/14 7:21,1.5,9,1.5,9,1.6,14
2014/4/14 7:22,1.5,9,1.5,9,1.5,14
2014/4/14 7:23,1.5,10,1.5,9,1.5,10
2014/4/14 7:24,1.5,10,1.5,9,0.8,6
2014/4/14 7:25,1.4,10,1.5,9,0.9,7
2014/4/14 7:26,1.2,10,1.4,9,1.1,7
2014/4/14 7:27,1,10,1.2,9,1.4,8
2014/4/14 7:28,0.8,10,1,9,1.4,8
2014/4/14 7:29,0.8,9,0.8,9,1,9
2014/4/14 7:30,0.8,9,0.8,9,1.8,9
2014/4/14 7:31,0.7,8,0.8,9,0.6,10
2014/4/14 7:32,0.6,8,0.7,10,0.8,8
2014/4/14 7:33,0.6,8,0.6,10,1.8,7
2014/4/14 7:34,0.7,8,0.7,10,2.2,9
2014/4/14 7:35,0.8,8,0.8,10,2,8
2014/4/14 7:36,0.7,8,0.8,10,0.9,7
2014/4/14 7:37,0.7,8,0.7,10,0.5,9
2014/4/14 7:38,0.7,9,0.7,10,1.4,2
2014/4/14 7:39,0.8,9,0.8,9,2.1,16
2014/4/14 7:40,0.7,9,0.8,9,1.3,16
2014/4/14 7:41,0.7,9,0.7,8,1,14
2014/4/14 7:42,0.8,9,0.8,8,1.3,15
2014/4/14 7:43,0.8,11,0.8,8,3.1,15
2014/4/14 7:44,0.7,13,0.8,8,1.9,1
2014/4/14 7:45,0.9,16,0.9,16,3.3,3
2014/4/14 7:46,1.2,16,1.2,16,5.6,4
2014/4/14 7:47,1.6,16,1.6,16,6.2,3
2014/4/14 7:48,1.9,1,1.9,1,5.6,2
2014/4/14 7:49,2.2,1,2.2,1,7.4,1
2014/4/14 7:50,2.4,1,2.4,1,6.7,16
2014/4/14 7:51,2.7,1,2.7,1,6.2,1
2014/4/14 7:52,3,1,3,1,5.4,1
2014/4/14 7:53,3.2,2,3.2,2,6.1,2
2014/4/14 7:54,3.6,2,3.6,2,7.5,15
2014/4/14 7:55,4,1,4,1,11,1
2014/4/14 7:56,4,1,4.1,1,6.5,3
2014/4/14 7:57,4.1,2,4.1,1,7,3
2014/4/14 7:58,4.1,2,4.2,2,6.5,3
2014/4/14 7:59,4.1,2,4.1,2,5.4,4
2014/4/14 8:00,4.1,2,4.1,2,8.2,1
2014/4/14 8:01,4.3,2,4.3,2,7.1,3
2014/4/14 8:02,4.4,2,4.4,2,5.7,3
2014/4/14 8:03,4.4,3,4.4,2,5.5,3
2014/4/14 8:04,4.2,3,4.3,2,4.4,3
2014/4/14 8:05,3.9,3,4.1,2,4.2,3
2014/4/14 8:06,3.9,3,3.9,2,6,3
2014/4/14 8:07,3.8,3,3.9,2,6.1,3
2014/4/14 8:08,3.8,3,3.8,2,6,4
2014/4/14 8:09,4,3,4,2,6.5,3
2014/4/14 8:10,4.1,3,4.1,2,7.5,4
2014/4/14 8:11,4.1,3,4.1,2,7,3
2014/4/14 8:12,4.1,3,4.1,2,6.7,3
2014/4/14 8:13,4.2,3,4.2,3,6.7,4
2014/4/14 8:12,4.2,3,4.2,2,6.7,4
2014/4/14 8:13,4.2,3,4.2,3,6.7,4
2014/4/14 8:14,4.2,3,4.2,3,6.7,1
2014/4/14 8:15,4.3,3,4.3,3,7.4,2
2014/4/14 8:16,4.2,3,4.3,3,6.8,1
2014/4/14 8:17,4.1,3,4.2,3,4.7,4
2014/4/14 8:18,3.9,2,4.1,3,3.8,1
2014/4/14 8:19,3.7,2,3.9,3,5.7,1
2014/4/14 8:20,3.7,2,3.7,3,8.7,3
2014/4/14 8:21,3.4,2,3.7,3,5,5
2014/4/14 8:22,3,2,3.4,3,2.2,3
2014/4/14 8:23,2.8,3,3,3,2.6,3
2014/4/14 8:24,2.7,3,2.8,3,3.9,4
2014/4/14 8:25,2.7,3,2.8,3,8.7,3
2014/4/14 8:26,2.9,3,2.9,3,8.7,3
2014/4/14 8:27,2.9,3,3,3,6.2,2
2014/4/14 8:28,3,3,3,2,4.4,3
2014/4/14 8:29,3,4,3.1,2,4.9,4
2014/4/14 8:30,2.8,4,3,2,2.7,1
2014/4/14 8:31,2.7,3,2.8,2,3.6,3
2014/4/14 8:32,3.1,3,3.1,4,7.1,3
2014/4/14 8:33,3.4,3,3.4,3,6.7,5
2014/4/14 8:34,3.5,3,3.5,3,5.8,4
2014/4/14 8:35,3.3,3,3.5,3,3.8,4
2014/4/14 8:36,3,3,3.3,3,3.6,3
2014/4/14 8:37,2.9,3,3,3,3.1,3
2014/4/14 8:38,2.9,3,2.9,3,3.9,2
2014/4/14 8:39,2.8,3,2.8,3,2.9,2
2014/4/14 8:40,2.9,3,2.9,3,4.5,3
2014/4/14 8:41,3,3,3,3,4.8,3
2014/4/14 8:42,3,3,3,3,8.4,3
2014/4/14 8:43,3,3,3,3,8.3,3
2014/4/14 8:44,3,3,3.1,3,8.2,3
2014/4/14 8:45,2.9,3,3,3,2.9,3
2014/4/14 8:46,2.8,3,2.9,3,1.3,5
2014/4/14 8:47,2.6,3,2.7,3,1.6,4
2014/4/14 8:48,2.6,3,2.6,3,4.7,1
2014/4/14 8:49,2.9,3,2.9,3,8.5,1
2014/4/14 8:50,2.9,3,2.9,3,5,2
2014/4/14 8:51,2.9,3,2.9,3,4.9,4
2014/4/14 8:52,2.9,3,2.9,3,9.7,1
2014/4/14 8:53,3,3,3.1,3,10.7,2
2014/4/14 8:54,2.9,2,3,3,7.5,1
2014/4/14 8:55,3.1,2,3.1,3,7.5,2
2014/4/14 8:56,3.6,2,3.6,2,8.5,3
2014/4/14 8:57,4.1,2,4.1,2,7.9,5
2014/4/14 8:58,4.3,2,4.3,2,7.8,2
2014/4/14 8:59,4.3,3,4.4,3,7.1,3
2014/4/14 9:00,4.4,2,4.4,3,6.4,16
2014/4/14 9:01,4.2,2,4.4,3,1.8,15
2014/4/14 9:02,3.8,2,4.1,3,2.4,2
2014/4/14 9:03,3.5,2,3.8,3,2.7,1
2014/4/14 9:04,3.5,2,3.5,3,4.7,2
2014/4/14 9:05,3.4,2,3.5,3,5.8,2
2014/4/14 9:06,3.1,2,3.4,3,5.2,2
2014/4/14 9:07,2.8,2,3.1,3,4.9,4
2014/4/14 9:08,2.5,2,2.8,3,5.8,2
2014/4/14 9:09,2.6,2,2.6,3,10.2,3
2014/4/14 9:10,3,2,3,2,11.3,3
2014/4/14 9:11,3.2,2,3.2,2,4.9,3
2014/4/14 9:12,3.3,3,3.3,2,4.1,4
2014/4/14 9:13,3.3,3,3.3,2,3.6,3
2014/4/14 9:14,3.4,3,3.4,2,8.7,3
2014/4/14 9:15,3.6,3,3.6,3,8.3,3
2014/4/14 9:16,3.8,3,3.8,3,6.8,3
2014/4/14 9:17,3.8,3,3.8,3,4.4,3
2014/4/14 9:18,4,3,4,3,4.3,2
2014/4/14 9:19,3.7,3,4,3,6.9,16
2014/4/14 9:20,3.2,2,3.6,3,6.3,15
2014/4/14 9:21,3.2,2,3.2,3,5.1,13
2014/4/14 9:22,3.1,1,3.2,3,4.2,16
2014/4/14 9:23,3.1,1,3.1,3,2.7,3
2014/4/14 9:24,3,1,3.1,3,5.7,3
2014/4/14 9:25,2.8,1,3,3,4.9,3
2014/4/14 9:26,2.4,1,2.7,3,2.2,1
2014/4/14 9:27,2.6,1,2.6,3,9,3
2014/4/14 9:28,2.9,1,2.9,3,8.9,3
2014/4/14 9:29,3,2,3,3,6.8,3
2014/4/14 9:30,3,3,3,2,5,4
2014/4/14 9:31,3,3,3,2,4.2,16
2014/4/14 9:32,3.1,3,3.1,1,5,3
2014/4/14 9:33,3.4,2,3.4,2,7.7,15
2014/4/14 9:34,3.3,2,3.4,2,4.3,16
2014/4/14 9:35,3.1,2,3.3,2,2.9,2
2014/4/14 9:36,3.1,2,3.2,2,2.6,1
2014/4/14 9:37,3,2,3.1,2,5.6,2
2014/4/14 9:38,2.6,2,3,2,3.9,4
2014/4/14 9:39,2.2,2,2.6,2,1.6,2
2014/4/14 9:40,2.2,2,2.2,2,5,2
2014/4/14 9:41,2.4,2,2.4,2,8.7,2
2014/4/14 9:42,2.4,2,2.4,2,6.1,1
2014/4/14 9:43,2.3,2,2.3,2,7.1,1
2014/4/14 9:44,2.4,3,2.5,2,8.4,3
2014/4/14 9:45,2.5,3,2.5,2,3.7,2
2014/4/14 9:46,2.5,3,2.5,2,2.7,3
2014/4/14 9:47,2.5,3,2.5,2,5.6,3
2014/4/14 9:48,2.6,3,2.6,2,6.2,1
2014/4/14 9:49,3,2,3,2,6.9,2
2014/4/14 9:50,3.3,2,3.3,2,7.6,3
2014/4/14 9:51,3.3,3,3.3,2,6.9,3
2014/4/14 9:52,3.3,3,3.3,2,6.7,3
2014/4/14 9:53,3.6,3,3.6,3,8.3,2
2014/4/14 9:54,3.6,3,3.6,3,6.7,3
2014/4/14 9:55,3.8,3,3.8,3,6.3,4
2014/4/14 9:56,3.9,3,3.9,3,5.4,3
2014/4/14 9:57,4.1,3,4.1,3,5.8,3
2014/4/14 9:58,4,3,4.1,3,6.7,3
2014/4/14 9:59,4,3,4,3,7.1,3
2014/4/14 10:00,4,3,4.1,3,8.2,3
2014/4/14 10:01,3.9,3,4,3,6.7,1
2014/4/14 10:02,3.8,2,3.9,3,3.8,1
2014/4/14 10:03,3.4,2,3.7,3,3,15
2014/4/14 10:04,3.1,2,3.4,3,3,14
2014/4/14 10:05,2.8,1,3,3,2.2,16
2014/4/14 10:06,2.6,2,2.8,3,1.9,16
2014/4/14 10:07,2.4,2,2.6,3,3.6,4
2014/4/14 10:08,2.3,1,2.4,3,3.1,16
2014/4/14 10:09,2.3,1,2.3,3,6.5,15
2014/4/14 10:10,2,1,2.3,3,4.3,14
2014/4/14 10:11,1.9,16,2,3,2.5,15
2014/4/14 10:12,1.8,16,1.9,2,5.2,6
2014/4/14 10:13,2.1,1,2.1,2,6.5,3
2014/4/14 10:14,2.3,1,2.3,2,5.2,2
2014/4/14 10:15,2.6,1,2.6,1,6.8,1
2014/4/14 10:16,2.8,1,2.8,1,6.4,15
2014/4/14 10:17,2.9,1,2.9,1,6.4,16
2014/4/14 10:18,3,1,3.1,1,6.3,16
2014/4/14 10:19,3.1,1,3.2,1,7.2,1
2014/4/14 10:20,3.2,1,3.2,1,5.2,15
2014/4/14 10:21,3.3,1,3.3,1,3.6,1
2014/4/14 10:22,3.3,1,3.3,1,4.4,15
2014/4/14 10:23,3.3,1,3.3,1,7.5,1
2014/4/14 10:24,3.5,1,3.5,1,7.6,1
2014/4/14 10:25,3.5,1,3.6,1,6,2
2014/4/14 10:26,3.5,1,3.5,1,5.4,3
2014/4/14 10:27,3.4,1,3.4,1,3.9,16
2014/4/14 10:28,3.3,1,3.4,1,4.2,2
2014/4/14 10:29,3.1,1,3.3,1,5,3
2014/4/14 10:30,3.1,2,3.1,1,4.9,2
2014/4/14 10:31,3.2,2,3.2,1,6.8,2
2014/4/14 10:32,3.3,2,3.3,1,5.5,3
2014/4/14 10:33,3.1,2,3.3,1,5.4,2
2014/4/14 10:34,2.9,2,3.1,1,5.4,2
2014/4/14 10:35,2.8,2,2.9,1,4.8,3
2014/4/14 10:36,2.7,2,2.8,1,4.7,3
2014/4/14 10:37,2.8,2,2.8,1,6.5,2
2014/4/14 10:38,2.8,2,2.8,1,4.9,1
2014/4/14 10:39,2.8,2,2.8,2,6.3,4
2014/4/14 10:40,2.9,2,2.9,2,7.1,3
2014/4/14 10:41,3,2,3,2,5.4,1
2014/4/14 10:42,3,2,3,2,4.2,3
2014/4/14 10:43,2.9,2,3,2,2.7,1
2014/4/14 10:44,2.6,2,2.9,2,1,6
2014/4/14 10:45,2.4,2,2.6,2,5.1,3
2014/4/14 10:46,2.6,2,2.6,2,5.2,16
2014/4/14 10:47,2.4,2,2.6,2,3.8,16
2014/4/14 10:48,2.4,2,2.4,2,5.6,3
2014/4/14 10:49,2.4,2,2.5,2,3.7,3
2014/4/14 10:50,2.1,2,2.4,2,3,4
2014/4/14 10:51,2,3,2.1,2,3.9,3
2014/4/14 10:52,2,3,2.1,2,3.7,5
2014/4/14 10:53,2,3,2,2,4.3,5
2014/4/14 10:54,2.3,2,2.3,2,7.4,15
2014/4/14 10:55,2.6,2,2.6,2,5.2,12
2014/4/14 10:56,2.3,2,2.5,2,3,12
2014/4/14 10:57,2.4,1,2.4,2,3,13
2014/4/14 10:58,2.3,2,2.4,2,4.2,4
2014/4/14 10:59,2.4,2,2.4,2,5.6,1
2014/4/14 11:00,2.6,1,2.6,2,5.6,1
2014/4/14 11:01,2.5,1,2.6,2,2.5,2
2014/4/14 11:02,2.6,1,2.6,2,8.1,16
2014/4/14 11:03,2.6,16,2.7,1,6.7,15
2014/4/14 11:04,2.7,16,2.7,1,8.5,15
2014/4/14 11:05,2.5,16,2.7,1,4.4,14
2014/4/14 11:06,2.7,1,2.7,1,4.3,16
2014/4/14 11:07,2.7,1,2.7,1,3.5,3
2014/4/14 11:08,2.7,1,2.7,1,5,5
2014/4/14 11:09,2.8,1,2.8,1,6.5,15
2014/4/14 11:10,2.7,1,2.8,1,5,2
2014/4/14 11:11,2.9,1,2.9,1,3.9,1
2014/4/14 11:12,2.8,1,2.9,1,7.4,16
2014/4/14 11:13,3,1,3,1,8.1,14
2014/4/14 11:14,3.2,1,3.2,1,8.9,16
2014/4/14 11:15,3.3,1,3.3,1,6.3,1
2014/4/14 11:16,3.1,1,3.3,1,2.4,2
2014/4/14 11:17,3.1,1,3.1,1,3.8,15
2014/4/14 11:18,3.3,16,3.3,1,10.6,12
2014/4/14 11:19,3.3,16,3.3,1,8.7,1
2014/4/14 11:20,3.4,16,3.4,16,6.3,15